| time (UTC) | temp F | wind direction | speed knots | gust knots | rain 1hr in | rain 24hr in | rain mn in | humidity % | barometer mb |
| 20260510164525 | 81 | 167 | 3.5 | 8.7 | 0.00 | 0.01 | 0.00 | 46 | 1013.1 |
| 20260510164025 | 81 | 170 | 3.5 | 10.4 | 0.00 | 0.01 | 0.00 | 45 | 1013.2 |
| 20260510163504 | 81 | 170 | 3.5 | 10.4 | 0.00 | 0.01 | 0.00 | 46 | 1013.2 |
| 20260510163005 | 82 | 159 | 2.6 | 7.0 | 0.00 | 0.01 | 0.00 | 48 | 1013.3 |
| 20260510162526 | 82 | 174 | 2.6 | 5.2 | 0.00 | 0.01 | 0.00 | 46 | 1013.2 |
| 20260510162005 | 81 | 182 | 2.6 | 11.3 | 0.00 | 0.01 | 0.00 | 46 | 1013.3 |
| 20260510161525 | 81 | 166 | 1.7 | 11.3 | 0.00 | 0.01 | 0.00 | 47 | 1013.3 |
| 20260510161026 | 81 | 177 | 2.6 | 6.1 | 0.00 | 0.01 | 0.00 | 49 | 1013.3 |
| 20260510160505 | 80 | 173 | 2.6 | 6.1 | 0.00 | 0.01 | 0.00 | 48 | 1013.4 |
| 20260510160025 | 80 | 179 | 2.6 | 6.1 | 0.00 | 0.01 | 0.00 | 50 | 1013.3 |
| 20260510155504 | 80 | 199 | 2.6 | 6.1 | 0.00 | 0.01 | 0.00 | 47 | 1013.3 |
| 20260510155004 | 80 | 166 | 1.7 | 5.2 | 0.00 | 0.01 | 0.00 | 50 | 1013.3 |
| 20260510154526 | 79 | 180 | 2.6 | 5.2 | 0.00 | 0.01 | 0.00 | 49 | 1013.4 |
| 20260510154026 | 79 | 217 | 2.6 | 6.1 | 0.00 | 0.01 | 0.00 | 48 | 1013.3 |
| 20260510153505 | 79 | 214 | 1.7 | 6.1 | 0.00 | 0.01 | 0.00 | 49 | 1013.4 |
| 20260510153004 | 79 | 175 | 1.7 | 5.2 | 0.00 | 0.01 | 0.00 | 49 | 1013.3 |
| 20260510152505 | 80 | 147 | 1.7 | 5.2 | 0.00 | 0.01 | 0.00 | 49 | 1013.3 |
| 20260510152004 | 80 | 250 | 1.7 | 7.0 | 0.00 | 0.01 | 0.00 | 48 | 1013.3 |
| 20260510151505 | 79 | 319 | 1.7 | 7.0 | 0.00 | 0.01 | 0.00 | 50 | 1013.4 |
| 20260510151025 | 79 | 310 | 2.6 | 7.8 | 0.00 | 0.01 | 0.00 | 49 | 1013.3 |
| 20260510150525 | 79 | 264 | 1.7 | 7.8 | 0.00 | 0.01 | 0.00 | 50 | 1013.3 |
| 20260510150025 | 78 | 284 | 0.9 | 7.8 | 0.00 | 0.01 | 0.00 | 51 | 1013.2 |
| 20260510145504 | 78 | 280 | 0.9 | 7.8 | 0.00 | 0.01 | 0.00 | 53 | 1013.2 |
| 20260510145005 | 77 | 114 | 0.9 | 4.3 | 0.00 | 0.01 | 0.00 | 53 | 1013.0 |
| 20260510144526 | 77 | 101 | 0.9 | 3.5 | 0.00 | 0.01 | 0.00 | 57 | 1013.0 |
| 20260510144004 | 77 | 132 | 0.9 | 3.5 | 0.00 | 0.01 | 0.00 | 58 | 1013.0 |
| 20260510143504 | 78 | 131 | 0.9 | 2.6 | 0.00 | 0.01 | 0.00 | 59 | 1012.9 |
| 20260510143004 | 76 | 87 | 0.9 | 2.6 | 0.00 | 0.01 | 0.00 | 60 | 1012.8 |
| 20260510142527 | 75 | 98 | 0.9 | 2.6 | 0.00 | 0.01 | 0.00 | 58 | 1012.8 |
| 20260510142025 | 75 | 103 | 0.9 | 2.6 | 0.00 | 0.01 | 0.00 | 62 | 1012.9 |
| 20260510141504 | 74 | 102 | 0.9 | 2.6 | 0.00 | 0.01 | 0.00 | 63 | 1013.0 |
| 20260510141026 | 73 | 76 | 0.9 | 2.6 | 0.00 | 0.01 | 0.00 | 63 | 1013.1 |
| 20260510140504 | 72 | 93 | 0.9 | 2.6 | 0.00 | 0.01 | 0.00 | 66 | 1013.1 |
| 20260510140025 | 72 | 96 | 0.9 | 2.6 | 0.00 | 0.01 | 0.00 | 66 | 1013.1 |
| 20260510135525 | 72 | 304 | 0.9 | 2.6 | 0.00 | 0.01 | 0.00 | 68 | 1013.1 |
| 20260510135004 | 71 | 42 | 0.9 | 2.6 | 0.00 | 0.01 | 0.00 | 68 | 1013.2 |
| 20260510134505 | 70 | 74 | 0.9 | 2.6 | 0.00 | 0.01 | 0.00 | 70 | 1013.1 |
| 20260510134005 | 69 | 98 | 0.9 | 2.6 | 0.00 | 0.01 | 0.00 | 73 | 1013.1 |
| 20260510133504 | 68 | 104 | 0.9 | 2.6 | 0.00 | 0.01 | 0.00 | 73 | 1013.0 |
| 20260510133025 | 68 | 93 | 0.9 | 2.6 | 0.00 | 0.01 | 0.00 | 75 | 1013.0 |
| 20260510132505 | 67 | 93 | 0.9 | 2.6 | 0.00 | 0.01 | 0.00 | 75 | 1013.0 |
| 20260510132004 | 67 | 92 | 0.9 | 2.6 | 0.00 | 0.01 | 0.00 | 78 | 1013.1 |
| 20260510131526 | 66 | 83 | 0.9 | 2.6 | 0.00 | 0.01 | 0.00 | 79 | 1013.2 |
| 20260510131004 | 65 | 75 | 0.0 | 1.7 | 0.00 | 0.01 | 0.00 | 84 | 1013.3 |
| 20260510130525 | 65 | 178 | 0.0 | 1.7 | 0.00 | 0.01 | 0.00 | 87 | 1013.3 |
| 20260510130004 | 63 | 190 | 0.0 | 0.9 | 0.00 | 0.01 | 0.00 | 91 | 1013.4 |
| 20260510125526 | 62 | 214 | 0.0 | 1.7 | 0.00 | 0.01 | 0.00 | 92 | 1013.4 |
| 20260510125004 | 61 | 97 | 0.9 | 1.7 | 0.00 | 0.01 | 0.00 | 94 | 1013.4 |
| 20260510124504 | 60 | 97 | 0.9 | 1.7 | 0.00 | 0.01 | 0.00 | 95 | 1013.4 |
| 20260510124025 | 59 | 79 | 0.9 | 1.7 | 0.00 | 0.01 | 0.00 | 95 | 1013.5 |
| 20260510123504 | 59 | 42 | 0.9 | 1.7 | 0.00 | 0.01 | 0.00 | 95 | 1013.5 |
| 20260510123004 | 58 | 24 | 0.0 | 1.7 | 0.00 | 0.01 | 0.00 | 95 | 1013.5 |
| 20260510122526 | 58 | 323 | 0.0 | 1.7 | 0.00 | 0.01 | 0.00 | 95 | 1013.5 |
| 20260510122025 | 57 | 323 | 0.0 | 0.9 | 0.00 | 0.01 | 0.00 | 95 | 1013.4 |
| 20260510121526 | 56 | 346 | 0.0 | 1.7 | 0.00 | 0.01 | 0.00 | 95 | 1013.3 |
| 20260510121004 | 56 | 90 | 0.9 | 1.7 | 0.00 | 0.01 | 0.00 | 95 | 1013.3 |
| 20260510120526 | 55 | 101 | 0.0 | 1.7 | 0.00 | 0.01 | 0.00 | 96 | 1013.3 |
| 20260510120025 | 55 | 101 | 0.0 | 1.7 | 0.00 | 0.01 | 0.00 | 95 | 1013.3 |
| 20260510115505 | 54 | 101 | 0.9 | 1.7 | 0.00 | 0.01 | 0.00 | 95 | 1013.2 |
| 20260510115004 | 54 | 101 | 0.0 | 1.7 | 0.00 | 0.01 | 0.00 | 95 | 1013.2 |
| 20260510114526 | 53 | 101 | 0.0 | 1.7 | 0.00 | 0.01 | 0.00 | 95 | 1013.1 |
| 20260510114025 | 52 | 0 | 0.0 | 0.0 | 0.00 | 0.01 | 0.00 | 95 | 1013.0 |
| 20260510113504 | 52 | 0 | 0.0 | 0.0 | 0.00 | 0.01 | 0.00 | 95 | 1012.9 |
| 20260510113005 | 51 | 0 | 0.0 | 0.0 | 0.00 | 0.01 | 0.00 | 95 | 1012.8 |
| 20260510112525 | 51 | 0 | 0.0 | 0.0 | 0.00 | 0.01 | 0.00 | 95 | 1012.8 |
| 20260510112004 | 50 | 0 | 0.0 | 0.0 | 0.00 | 0.01 | 0.00 | 95 | 1012.7 |
| 20260510111504 | 50 | 0 | 0.0 | 0.0 | 0.00 | 0.01 | 0.00 | 95 | 1012.6 |
| 20260510111005 | 50 | 0 | 0.0 | 0.0 | 0.00 | 0.01 | 0.00 | 94 | 1012.6 |
| 20260510110526 | 49 | 0 | 0.0 | 0.0 | 0.00 | 0.01 | 0.00 | 94 | 1012.5 |
| 20260510110005 | 49 | 0 | 0.0 | 0.0 | 0.00 | 0.01 | 0.00 | 94 | 1012.5 |
| 20260510105505 | 49 | 0 | 0.0 | 0.0 | 0.00 | 0.01 | 0.00 | 94 | 1012.4 |
| 20260510105025 | 49 | 0 | 0.0 | 0.0 | 0.00 | 0.01 | 0.00 | 94 | 1012.2 |
| 20260510104505 | 49 | 0 | 0.0 | 0.0 | 0.00 | 0.01 | 0.00 | 94 | 1012.0 |
| 20260510104004 | 49 | 0 | 0.0 | 0.0 | 0.00 | 0.01 | 0.00 | 94 | 1011.9 |
| 20260510103525 | 49 | 0 | 0.0 | 0.0 | 0.00 | 0.01 | 0.00 | 94 | 1011.8 |
| 20260510103004 | 49 | 0 | 0.0 | 0.0 | 0.00 | 0.01 | 0.00 | 94 | 1011.7 |
| 20260510102525 | 49 | 0 | 0.0 | 0.0 | 0.00 | 0.01 | 0.00 | 94 | 1011.7 |
| 20260510102025 | 49 | 0 | 0.0 | 0.0 | 0.00 | 0.01 | 0.00 | 94 | 1011.8 |
| 20260510101504 | 49 | 0 | 0.0 | 0.0 | 0.00 | 0.01 | 0.00 | 94 | 1011.6 |
| 20260510101025 | 49 | 0 | 0.0 | 0.0 | 0.00 | 0.01 | 0.00 | 94 | 1011.6 |
| 20260510100504 | 49 | 0 | 0.0 | 0.0 | 0.00 | 0.01 | 0.00 | 94 | 1011.6 |
| 20260510100005 | 49 | 0 | 0.0 | 0.0 | 0.00 | 0.01 | 0.00 | 94 | 1011.6 |
| 20260510095525 | 49 | 0 | 0.0 | 0.0 | 0.00 | 0.01 | 0.00 | 93 | 1011.7 |
| 20260510095004 | 49 | 0 | 0.0 | 0.0 | 0.00 | 0.01 | 0.00 | 93 | 1011.7 |
| 20260510094526 | 49 | 0 | 0.0 | 0.0 | 0.00 | 0.01 | 0.00 | 93 | 1011.7 |
| 20260510094025 | 50 | 0 | 0.0 | 0.0 | 0.00 | 0.01 | 0.00 | 93 | 1011.7 |
| 20260510093504 | 50 | 0 | 0.0 | 0.0 | 0.00 | 0.01 | 0.00 | 93 | 1011.7 |
| 20260510093025 | 50 | 0 | 0.0 | 0.0 | 0.00 | 0.01 | 0.00 | 93 | 1011.7 |
| 20260510092504 | 50 | 0 | 0.0 | 0.0 | 0.00 | 0.01 | 0.00 | 93 | 1011.6 |
| 20260510092004 | 50 | 0 | 0.0 | 0.0 | 0.00 | 0.01 | 0.00 | 93 | 1011.6 |
| 20260510091504 | 50 | 0 | 0.0 | 0.0 | 0.00 | 0.01 | 0.00 | 93 | 1011.5 |
| 20260510091004 | 50 | 0 | 0.0 | 0.0 | 0.00 | 0.01 | 0.00 | 93 | 1011.5 |
| 20260510090525 | 50 | 0 | 0.0 | 0.0 | 0.00 | 0.01 | 0.00 | 93 | 1011.5 |
| 20260510090025 | 50 | 0 | 0.0 | 0.0 | 0.00 | 0.01 | 0.00 | 93 | 1011.4 |
| 20260510085504 | 50 | 0 | 0.0 | 0.0 | 0.00 | 0.01 | 0.00 | 93 | 1011.3 |
| 20260510085004 | 50 | 0 | 0.0 | 0.0 | 0.00 | 0.01 | 0.00 | 93 | 1011.2 |
| 20260510084525 | 50 | 0 | 0.0 | 0.0 | 0.00 | 0.01 | 0.00 | 93 | 1011.2 |
| 20260510084025 | 50 | 0 | 0.0 | 0.0 | 0.00 | 0.01 | 0.00 | 93 | 1011.2 |
| 20260510083504 | 50 | 0 | 0.0 | 0.0 | 0.00 | 0.01 | 0.00 | 93 | 1011.1 |
| 20260510083004 | 50 | 0 | 0.0 | 0.0 | 0.00 | 0.01 | 0.00 | 93 | 1011.0 |
| 20260510082525 | 50 | 0 | 0.0 | 0.0 | 0.00 | 0.01 | 0.00 | 93 | 1011.0 |
| 20260510082004 | 50 | 101 | 0.0 | 0.9 | 0.00 | 0.01 | 0.00 | 92 | 1010.9 |
| 20260510081504 | 50 | 101 | 0.0 | 0.9 | 0.00 | 0.01 | 0.00 | 93 | 1010.8 |
| 20260510081005 | 50 | 0 | 0.0 | 0.0 | 0.00 | 0.01 | 0.00 | 93 | 1010.7 |
| 20260510080504 | 51 | 0 | 0.0 | 0.0 | 0.00 | 0.01 | 0.00 | 92 | 1010.6 |
| 20260510080025 | 51 | 0 | 0.0 | 0.0 | 0.00 | 0.01 | 0.00 | 92 | 1010.5 |
| 20260510075504 | 51 | 0 | 0.0 | 0.0 | 0.00 | 0.01 | 0.00 | 92 | 1010.5 |
| 20260510075025 | 51 | 0 | 0.0 | 0.0 | 0.00 | 0.01 | 0.00 | 92 | 1010.4 |
| 20260510074504 | 51 | 0 | 0.0 | 0.0 | 0.00 | 0.01 | 0.00 | 92 | 1010.4 |
| 20260510074004 | 51 | 0 | 0.0 | 0.0 | 0.00 | 0.01 | 0.00 | 92 | 1010.3 |
| 20260510073504 | 51 | 0 | 0.0 | 0.0 | 0.00 | 0.01 | 0.00 | 92 | 1010.4 |
| 20260510073005 | 51 | 0 | 0.0 | 0.0 | 0.00 | 0.01 | 0.00 | 92 | 1010.3 |
| 20260510072525 | 51 | 101 | 0.0 | 0.9 | 0.00 | 0.01 | 0.00 | 92 | 1010.3 |
| 20260510072004 | 52 | 101 | 0.0 | 0.9 | 0.00 | 0.01 | 0.00 | 92 | 1010.3 |
| 20260510071504 | 52 | 0 | 0.0 | 0.0 | 0.00 | 0.01 | 0.00 | 92 | 1010.4 |
| 20260510071025 | 52 | 0 | 0.0 | 0.0 | 0.00 | 0.01 | 0.00 | 92 | 1010.3 |
| 20260510070505 | 52 | 0 | 0.0 | 0.0 | 0.00 | 0.01 | 0.00 | 92 | 1010.2 |
| 20260510070025 | 52 | 0 | 0.0 | 0.0 | 0.00 | 0.01 | 0.00 | 92 | 1010.2 |
| 20260510065526 | 52 | 0 | 0.0 | 0.0 | 0.00 | 0.01 | 0.00 | 92 | 1010.2 |
| 20260510065004 | 52 | 0 | 0.0 | 0.0 | 0.00 | 0.01 | 0.00 | 92 | 1010.1 |
| 20260510064525 | 52 | 0 | 0.0 | 0.0 | 0.00 | 0.01 | 0.00 | 92 | 1010.1 |
| 20260510064025 | 52 | 0 | 0.0 | 0.0 | 0.00 | 0.01 | 0.00 | 92 | 1010.1 |
| 20260510063525 | 52 | 0 | 0.0 | 0.0 | 0.00 | 0.01 | 0.00 | 92 | 1010.1 |
| 20260510063025 | 53 | 0 | 0.0 | 0.0 | 0.00 | 0.01 | 0.00 | 92 | 1010.1 |
| 20260510062525 | 53 | 0 | 0.0 | 0.0 | 0.00 | 0.01 | 0.00 | 92 | 1010.1 |
| 20260510062025 | 53 | 0 | 0.0 | 0.0 | 0.00 | 0.01 | 0.00 | 92 | 1010.1 |
| 20260510061504 | 53 | 0 | 0.0 | 0.0 | 0.00 | 0.01 | 0.00 | 92 | 1010.0 |
| 20260510061026 | 53 | 0 | 0.0 | 0.0 | 0.00 | 0.01 | 0.00 | 91 | 1010.0 |
| 20260510060506 | 53 | 0 | 0.0 | 0.0 | 0.00 | 0.01 | 0.00 | 91 | 1010.0 |
| 20260510060025 | 53 | 101 | 0.0 | 0.9 | 0.00 | 0.01 | 0.00 | 91 | 1010.1 |
| 20260510055525 | 53 | 101 | 0.0 | 0.9 | 0.00 | 0.01 | 0.00 | 91 | 1010.1 |
| 20260510055025 | 54 | 101 | 0.0 | 0.9 | 0.00 | 0.01 | 0.00 | 91 | 1010.2 |
| 20260510054525 | 54 | 101 | 0.0 | 0.9 | 0.00 | 0.01 | 0.00 | 91 | 1010.2 |
| 20260510054004 | 54 | 101 | 0.0 | 0.9 | 0.00 | 0.01 | 0.00 | 91 | 1010.2 |
| 20260510053505 | 54 | 0 | 0.0 | 0.0 | 0.00 | 0.01 | 0.00 | 91 | 1010.2 |
| 20260510053004 | 54 | 0 | 0.0 | 0.0 | 0.00 | 0.01 | 0.00 | 91 | 1010.2 |
| 20260510052525 | 54 | 0 | 0.0 | 0.0 | 0.00 | 0.01 | 0.00 | 91 | 1010.2 |
| 20260510052004 | 54 | 0 | 0.0 | 0.0 | 0.00 | 0.01 | 0.00 | 91 | 1010.2 |
| 20260510051525 | 54 | 0 | 0.0 | 0.0 | 0.00 | 0.01 | 0.00 | 90 | 1010.2 |
| 20260510051026 | 54 | 0 | 0.0 | 0.0 | 0.00 | 0.01 | 0.00 | 90 | 1010.2 |
| 20260510050505 | 54 | 0 | 0.0 | 0.0 | 0.00 | 0.01 | 0.00 | 90 | 1010.2 |
| 20260510050005 | 55 | 0 | 0.0 | 0.0 | 0.00 | 0.01 | 0.00 | 90 | 1010.3 |
| 20260510045525 | 55 | 0 | 0.0 | 0.0 | 0.00 | 0.01 | 0.00 | 90 | 1010.3 |
| 20260510045025 | 55 | 0 | 0.0 | 0.0 | 0.00 | 0.01 | 0.00 | 90 | 1010.4 |
| 20260510044505 | 55 | 0 | 0.0 | 0.0 | 0.00 | 0.01 | 0.00 | 89 | 1010.4 |
| 20260510044004 | 55 | 0 | 0.0 | 0.0 | 0.00 | 0.01 | 0.00 | 89 | 1010.4 |
| 20260510043525 | 55 | 0 | 0.0 | 0.0 | 0.00 | 0.01 | 0.00 | 89 | 1010.4 |
| 20260510043025 | 55 | 0 | 0.0 | 0.0 | 0.00 | 0.01 | 0.00 | 89 | 1010.4 |
| 20260510042526 | 55 | 0 | 0.0 | 0.0 | 0.00 | 0.01 | 0.00 | 89 | 1010.2 |
| 20260510042005 | 56 | 0 | 0.0 | 0.0 | 0.00 | 0.01 | 0.00 | 89 | 1010.3 |
| 20260510041504 | 56 | 0 | 0.0 | 0.0 | 0.00 | 0.01 | 0.00 | 88 | 1010.2 |
| 20260510041025 | 56 | 0 | 0.0 | 0.0 | 0.00 | 0.01 | 0.00 | 88 | 1010.2 |
| 20260510040504 | 56 | 0 | 0.0 | 0.0 | 0.00 | 0.01 | 0.00 | 88 | 1010.2 |
| 20260510040005 | 56 | 0 | 0.0 | 0.0 | 0.00 | 0.01 | 0.00 | 88 | 1010.3 |
| 20260510035504 | 56 | 0 | 0.0 | 0.0 | 0.00 | 0.01 | 0.01 | 88 | 1010.3 |
| 20260510035026 | 56 | 0 | 0.0 | 0.0 | 0.00 | 0.01 | 0.01 | 88 | 1010.3 |
| 20260510034504 | 56 | 0 | 0.0 | 0.0 | 0.00 | 0.01 | 0.01 | 88 | 1010.2 |
| 20260510034026 | 57 | 0 | 0.0 | 0.0 | 0.00 | 0.01 | 0.01 | 88 | 1010.2 |
| 20260510033525 | 57 | 0 | 0.0 | 0.0 | 0.00 | 0.01 | 0.01 | 88 | 1010.1 |
| 20260510033025 | 57 | 0 | 0.0 | 0.0 | 0.00 | 0.01 | 0.01 | 87 | 1010.2 |
| 20260510032504 | 57 | 0 | 0.0 | 0.0 | 0.00 | 0.01 | 0.01 | 87 | 1010.2 |
| 20260510032025 | 57 | 0 | 0.0 | 0.0 | 0.00 | 0.01 | 0.01 | 87 | 1010.1 |
| 20260510031525 | 58 | 0 | 0.0 | 0.0 | 0.00 | 0.01 | 0.01 | 87 | 1010.1 |
| 20260510031004 | 58 | 0 | 0.0 | 0.0 | 0.00 | 0.01 | 0.01 | 87 | 1010.0 |
| 20260510030526 | 58 | 0 | 0.0 | 0.0 | 0.00 | 0.01 | 0.01 | 86 | 1010.0 |
| 20260510030004 | 58 | 0 | 0.0 | 0.0 | 0.00 | 0.01 | 0.01 | 86 | 1010.0 |
| 20260510025504 | 58 | 0 | 0.0 | 0.0 | 0.00 | 0.01 | 0.01 | 86 | 1010.0 |
| 20260510025025 | 58 | 0 | 0.0 | 0.0 | 0.00 | 0.01 | 0.01 | 86 | 1009.9 |
| 20260510024505 | 59 | 0 | 0.0 | 0.0 | 0.00 | 0.01 | 0.01 | 86 | 1009.9 |
| 20260510024005 | 59 | 0 | 0.0 | 0.0 | 0.00 | 0.01 | 0.01 | 86 | 1009.9 |
| 20260510023504 | 59 | 0 | 0.0 | 0.0 | 0.00 | 0.01 | 0.01 | 85 | 1009.9 |
| 20260510023004 | 59 | 0 | 0.0 | 0.0 | 0.00 | 0.01 | 0.01 | 85 | 1009.9 |
| 20260510022504 | 59 | 0 | 0.0 | 0.0 | 0.00 | 0.01 | 0.01 | 85 | 1010.1 |
| 20260510022004 | 60 | 0 | 0.0 | 0.0 | 0.00 | 0.01 | 0.01 | 84 | 1010.0 |
| 20260510021504 | 60 | 0 | 0.0 | 0.0 | 0.00 | 0.01 | 0.01 | 84 | 1009.9 |
| 20260510021004 | 60 | 0 | 0.0 | 0.0 | 0.00 | 0.01 | 0.01 | 83 | 1010.0 |
| 20260510020525 | 60 | 0 | 0.0 | 0.0 | 0.00 | 0.01 | 0.01 | 83 | 1009.9 |
| 20260510020004 | 60 | 0 | 0.0 | 0.0 | 0.00 | 0.01 | 0.01 | 83 | 1009.9 |
| 20260510015504 | 60 | 0 | 0.0 | 0.0 | 0.00 | 0.01 | 0.01 | 83 | 1009.8 |
| 20260510015026 | 61 | 0 | 0.0 | 0.0 | 0.00 | 0.01 | 0.01 | 83 | 1009.8 |
| 20260510014504 | 61 | 0 | 0.0 | 0.0 | 0.00 | 0.01 | 0.01 | 82 | 1009.8 |
| 20260510014004 | 61 | 0 | 0.0 | 0.0 | 0.00 | 0.01 | 0.01 | 82 | 1009.8 |
| 20260510013504 | 61 | 0 | 0.0 | 0.0 | 0.00 | 0.01 | 0.01 | 81 | 1009.6 |
| 20260510013004 | 61 | 101 | 0.0 | 0.9 | 0.00 | 0.01 | 0.01 | 81 | 1009.6 |
| 20260510012525 | 62 | 101 | 0.0 | 0.9 | 0.00 | 0.01 | 0.01 | 81 | 1009.6 |
| 20260510012004 | 62 | 101 | 0.0 | 0.9 | 0.00 | 0.01 | 0.01 | 81 | 1009.6 |
| 20260510011525 | 62 | 97 | 0.9 | 2.6 | 0.00 | 0.01 | 0.01 | 80 | 1009.6 |
| 20260510011005 | 62 | 62 | 0.9 | 2.6 | 0.00 | 0.01 | 0.01 | 79 | 1009.4 |
| 20260510010526 | 63 | 28 | 0.0 | 1.7 | 0.00 | 0.01 | 0.01 | 78 | 1009.4 |
| 20260510010025 | 63 | 53 | 0.0 | 1.7 | 0.00 | 0.01 | 0.01 | 78 | 1009.4 |
| 20260510005504 | 64 | 53 | 0.0 | 1.7 | 0.00 | 0.01 | 0.01 | 77 | 1009.3 |
| 20260510005005 | 64 | 53 | 0.0 | 0.9 | 0.00 | 0.01 | 0.01 | 76 | 1009.3 |
| 20260510004504 | 64 | 53 | 0.0 | 0.9 | 0.00 | 0.01 | 0.01 | 76 | 1009.3 |
| 20260510004025 | 64 | 53 | 0.0 | 0.9 | 0.00 | 0.01 | 0.01 | 75 | 1009.3 |
| 20260510003504 | 65 | 53 | 0.0 | 0.9 | 0.00 | 0.01 | 0.01 | 75 | 1009.1 |
| 20260510003025 | 65 | 65 | 0.0 | 1.7 | 0.00 | 0.01 | 0.01 | 74 | 1009.1 |
| 20260510002525 | 66 | 46 | 0.0 | 1.7 | 0.00 | 0.01 | 0.01 | 74 | 1009.1 |
| 20260510002026 | 66 | 23 | 0.0 | 0.9 | 0.00 | 0.01 | 0.01 | 73 | 1009.1 |
| 20260510001504 | 66 | 26 | 0.0 | 1.7 | 0.00 | 0.01 | 0.01 | 72 | 1009.1 |
| 20260510001004 | 67 | 31 | 0.0 | 1.7 | 0.00 | 0.01 | 0.01 | 72 | 1009.0 |
| 20260510000525 | 67 | 43 | 0.0 | 1.7 | 0.00 | 0.01 | 0.01 | 72 | 1009.0 |
| 20260510000025 | 67 | 59 | 0.0 | 0.9 | 0.00 | 0.01 | 0.01 | 71 | 1009.0 |
| 20260509235504 | 68 | 59 | 0.0 | 0.9 | 0.00 | 0.01 | 0.01 | 70 | 1008.8 |
| 20260509235025 | 68 | 59 | 0.0 | 0.9 | 0.00 | 0.01 | 0.01 | 69 | 1008.8 |
| 20260509234504 | 68 | 59 | 0.0 | 1.7 | 0.00 | 0.01 | 0.01 | 69 | 1008.7 |
| 20260509234004 | 68 | 59 | 0.0 | 1.7 | 0.00 | 0.01 | 0.01 | 69 | 1008.8 |
| 20260509233525 | 69 | 59 | 0.0 | 0.9 | 0.00 | 0.01 | 0.01 | 68 | 1008.7 |
| 20260509233025 | 69 | 61 | 0.0 | 1.7 | 0.00 | 0.01 | 0.01 | 68 | 1008.6 |
| 20260509232504 | 69 | 64 | 0.0 | 1.7 | 0.00 | 0.01 | 0.01 | 67 | 1008.6 |
| 20260509232004 | 70 | 71 | 0.0 | 1.7 | 0.00 | 0.01 | 0.01 | 67 | 1008.6 |
| 20260509231505 | 70 | 71 | 0.0 | 1.7 | 0.00 | 0.01 | 0.01 | 67 | 1008.5 |
| 20260509231025 | 70 | 73 | 0.0 | 1.7 | 0.00 | 0.01 | 0.01 | 67 | 1008.5 |
| 20260509230525 | 70 | 73 | 0.0 | 1.7 | 0.00 | 0.01 | 0.01 | 67 | 1008.5 |
| 20260509230025 | 70 | 72 | 0.0 | 0.9 | 0.00 | 0.01 | 0.01 | 68 | 1008.5 |
| 20260509225504 | 70 | 76 | 0.0 | 3.5 | 0.00 | 0.01 | 0.01 | 67 | 1008.4 |
| 20260509225004 | 70 | 69 | 0.9 | 3.5 | 0.00 | 0.01 | 0.01 | 67 | 1008.5 |
| 20260509224525 | 70 | 68 | 0.9 | 2.6 | 0.00 | 0.01 | 0.01 | 66 | 1008.5 |
| 20260509224005 | 70 | 71 | 0.9 | 3.5 | 0.00 | 0.01 | 0.01 | 66 | 1008.5 |
| 20260509223504 | 71 | 71 | 0.9 | 3.5 | 0.00 | 0.01 | 0.01 | 66 | 1008.6 |
| 20260509223026 | 71 | 72 | 0.9 | 3.5 | 0.00 | 0.01 | 0.01 | 65 | 1008.5 |
| 20260509222525 | 72 | 75 | 0.9 | 3.5 | 0.00 | 0.01 | 0.01 | 65 | 1008.6 |
| 20260509222004 | 72 | 71 | 0.9 | 3.5 | 0.00 | 0.01 | 0.01 | 64 | 1008.5 |
| 20260509221504 | 72 | 53 | 0.9 | 5.2 | 0.00 | 0.01 | 0.01 | 63 | 1008.5 |
| 20260509221025 | 72 | 61 | 0.9 | 5.2 | 0.00 | 0.01 | 0.01 | 64 | 1008.5 |
| 20260509220525 | 73 | 95 | 0.9 | 3.5 | 0.00 | 0.01 | 0.01 | 63 | 1008.6 |
| 20260509220004 | 72 | 93 | 0.9 | 3.5 | 0.00 | 0.01 | 0.01 | 61 | 1008.5 |
| 20260509215525 | 72 | 57 | 0.0 | 2.6 | 0.00 | 0.01 | 0.01 | 63 | 1008.5 |
| 20260509215005 | 72 | 97 | 0.0 | 2.6 | 0.00 | 0.01 | 0.01 | 64 | 1008.5 |
| 20260509214526 | 72 | 111 | 0.0 | 2.6 | 0.00 | 0.01 | 0.01 | 64 | 1008.6 |
| 20260509214005 | 72 | 111 | 0.0 | 1.7 | 0.00 | 0.01 | 0.01 | 66 | 1008.6 |
| 20260509213525 | 71 | 94 | 0.9 | 1.7 | 0.00 | 0.01 | 0.01 | 66 | 1008.5 |
| 20260509213006 | 71 | 86 | 0.9 | 2.6 | 0.00 | 0.01 | 0.01 | 68 | 1008.6 |
| 20260509212525 | 71 | 80 | 0.9 | 3.5 | 0.00 | 0.01 | 0.01 | 66 | 1008.5 |
| 20260509212026 | 71 | 95 | 0.9 | 3.5 | 0.00 | 0.01 | 0.01 | 66 | 1008.6 |
| 20260509211504 | 71 | 127 | 0.9 | 2.6 | 0.00 | 0.01 | 0.01 | 67 | 1008.5 |
| 20260509211025 | 71 | 112 | 0.9 | 2.6 | 0.00 | 0.01 | 0.01 | 67 | 1008.5 |
| 20260509210525 | 71 | 96 | 0.9 | 3.5 | 0.00 | 0.01 | 0.01 | 66 | 1008.4 |
| 20260509210004 | 71 | 101 | 0.9 | 5.2 | 0.00 | 0.01 | 0.01 | 66 | 1008.4 |
| 20260509205525 | 71 | 114 | 1.7 | 5.2 | 0.00 | 0.01 | 0.01 | 66 | 1008.4 |
| 20260509205026 | 71 | 109 | 1.7 | 6.1 | 0.00 | 0.01 | 0.01 | 65 | 1008.4 |
| 20260509204526 | 71 | 113 | 0.9 | 6.1 | 0.00 | 0.01 | 0.01 | 64 | 1008.3 |
| 20260509204005 | 70 | 90 | 0.9 | 4.3 | 0.00 | 0.01 | 0.01 | 66 | 1008.4 |
| 20260509203525 | 70 | 85 | 1.7 | 4.3 | 0.00 | 0.01 | 0.01 | 65 | 1008.3 |
| 20260509203025 | 71 | 87 | 0.9 | 3.5 | 0.00 | 0.01 | 0.01 | 64 | 1008.5 |
| 20260509202525 | 71 | 77 | 0.9 | 3.5 | 0.00 | 0.01 | 0.01 | 67 | 1008.5 |
| 20260509202005 | 71 | 113 | 0.9 | 2.6 | 0.00 | 0.01 | 0.01 | 71 | 1008.6 |
| 20260509201525 | 70 | 79 | 0.9 | 2.6 | 0.00 | 0.01 | 0.01 | 71 | 1008.7 |
| 20260509201025 | 69 | 18 | 0.0 | 2.6 | 0.00 | 0.01 | 0.01 | 74 | 1008.8 |
| 20260509200525 | 69 | 16 | 0.0 | 1.7 | 0.00 | 0.01 | 0.01 | 74 | 1009.0 |
| 20260509200026 | 68 | 18 | 0.0 | 1.7 | 0.00 | 0.01 | 0.01 | 73 | 1009.0 |
| 20260509195504 | 68 | 0 | 0.0 | 0.0 | 0.01 | 0.01 | 0.01 | 73 | 1009.2 |
| 20260509195004 | 68 | 0 | 0.0 | 0.0 | 0.01 | 0.01 | 0.01 | 75 | 1009.2 |
| 20260509194504 | 68 | 0 | 0.0 | 0.0 | 0.01 | 0.01 | 0.01 | 75 | 1009.2 |
| 20260509194025 | 68 | 78 | 0.0 | 0.9 | 0.01 | 0.01 | 0.01 | 78 | 1009.2 |
| 20260509193525 | 67 | 63 | 0.0 | 2.6 | 0.01 | 0.01 | 0.01 | 77 | 1009.3 |
| 20260509193004 | 68 | 35 | 0.9 | 2.6 | 0.01 | 0.01 | 0.01 | 80 | 1009.4 |
| 20260509192525 | 67 | 33 | 0.9 | 2.6 | 0.01 | 0.01 | 0.01 | 82 | 1009.3 |
| 20260509192025 | 66 | 60 | 0.9 | 2.6 | 0.01 | 0.01 | 0.01 | 83 | 1009.3 |
| 20260509191504 | 66 | 78 | 0.9 | 3.5 | 0.01 | 0.01 | 0.01 | 80 | 1009.4 |
| 20260509191004 | 66 | 93 | 0.9 | 3.5 | 0.01 | 0.01 | 0.01 | 81 | 1009.5 |
| 20260509190525 | 66 | 92 | 0.9 | 2.6 | 0.01 | 0.01 | 0.01 | 81 | 1009.7 |
| 20260509190025 | 66 | 93 | 0.9 | 2.6 | 0.01 | 0.01 | 0.01 | 76 | 1009.8 |
| 20260509185504 | 66 | 81 | 0.9 | 3.5 | 0.00 | 0.00 | 0.00 | 75 | 1009.9 |
| 20260509185025 | 66 | 79 | 0.9 | 3.5 | 0.00 | 0.00 | 0.00 | 73 | 1009.9 |
| 20260509184504 | 66 | 0 | 0.0 | 0.0 | 0.00 | 0.00 | 0.00 | 72 | 1009.8 |
| 20260509184004 | 67 | 0 | 0.0 | 0.0 | 0.00 | 0.00 | 0.00 | 71 | 1009.8 |
| 20260509183525 | 67 | 0 | 0.0 | 0.0 | 0.00 | 0.00 | 0.00 | 70 | 1009.7 |
| 20260509183005 | 67 | 0 | 0.0 | 0.0 | 0.00 | 0.00 | 0.00 | 71 | 1009.8 |
| 20260509182525 | 67 | 337 | 0.0 | 1.7 | 0.00 | 0.00 | 0.00 | 71 | 1009.8 |
| 20260509182004 | 66 | 337 | 0.0 | 1.7 | 0.00 | 0.00 | 0.00 | 71 | 1009.9 |
| 20260509181525 | 66 | 337 | 0.0 | 0.9 | 0.00 | 0.00 | 0.00 | 71 | 1010.2 |
| 20260509181025 | 66 | 336 | 0.0 | 0.9 | 0.00 | 0.00 | 0.00 | 70 | 1010.4 |
| 20260509180525 | 66 | 335 | 0.0 | 0.9 | 0.00 | 0.00 | 0.00 | 69 | 1010.4 |
| 20260509180025 | 66 | 346 | 0.0 | 1.7 | 0.00 | 0.00 | 0.00 | 69 | 1010.3 |
| 20260509175525 | 66 | 355 | 0.9 | 2.6 | 0.00 | 0.00 | 0.00 | 68 | 1010.3 |
| 20260509175025 | 66 | 357 | 0.9 | 2.6 | 0.00 | 0.00 | 0.00 | 68 | 1010.2 |
| 20260509174504 | 66 | 354 | 0.9 | 2.6 | 0.00 | 0.00 | 0.00 | 68 | 1010.2 |
| 20260509174004 | 67 | 348 | 0.0 | 1.7 | 0.00 | 0.00 | 0.00 | 68 | 1010.2 |
| 20260509173504 | 67 | 343 | 0.9 | 2.6 | 0.00 | 0.00 | 0.00 | 68 | 1010.3 |
| 20260509173004 | 67 | 332 | 0.9 | 2.6 | 0.00 | 0.00 | 0.00 | 68 | 1010.4 |
| 20260509172504 | 68 | 354 | 0.9 | 3.5 | 0.00 | 0.00 | 0.00 | 67 | 1010.3 |
| 20260509172026 | 68 | 1 | 0.9 | 3.5 | 0.00 | 0.00 | 0.00 | 66 | 1010.3 |
| 20260509171504 | 69 | 355 | 0.9 | 2.6 | 0.00 | 0.00 | 0.00 | 65 | 1010.3 |
| 20260509171004 | 69 | 340 | 0.9 | 1.7 | 0.00 | 0.00 | 0.00 | 63 | 1010.3 |
| 20260509170525 | 69 | 233 | 0.9 | 2.6 | 0.00 | 0.00 | 0.00 | 60 | 1010.3 |
| 20260509170006 | 69 | 233 | 0.9 | 2.6 | 0.00 | 0.00 | 0.00 | 59 | 1010.3 |
| 20260509165525 | 69 | 223 | 0.9 | 2.6 | 0.00 | 0.00 | 0.00 | 60 | 1010.2 |
| 20260509165025 | 69 | 239 | 1.7 | 7.0 | 0.00 | 0.00 | 0.00 | 59 | 1010.2 |